Powrót do katalogu

FENGYUN 1C DEB

AktywnySSO
NORAD 32133·DEBRIS·🇨🇳 China

Wystrzelony May 10, 1999 z Taiyuan Satellite Launch Center

Loading…

Następne Przeloty (najbliższe 24 godziny)

TLE

ŚwieżeSource: Space-Track

Epoka: Sep 14, 2026, 10:03 UTC

1 32133U 99025CSB 26257.41924282  .00000192  00000-0  11258-3 0  9993
2 32133  98.4446 250.0846 0035918  24.9044 335.3856 14.18268041988826

Śledź FENGYUN 1C DEB w czasie rzeczywistym z AllMySat

Download on the App Store